Le nostre stazioni meteo in Italia

Pubblicità
Il mio iltempo24.it
Marina Di Ginosa, Italia (16325): Temperatura & dewpoint: 17.07.2019 06:00:00 - 23.07.2019 06:00:00 (CEST)Marina Di Ginosa, Italia (16325): velocità del vento: 17.07.2019 06:00:00 - 23.07.2019 06:00:00 (CEST)Marina Di Ginosa, Italia (16325): direzione del vento: 17.07.2019 06:00:00 - 23.07.2019 06:00:00 (CEST)Marina Di Ginosa, Italia (16325): reduced air pressure: 17.07.2019 06:00:00 - 23.07.2019 06:00:00 (CEST)Marina Di Ginosa, Italia (16325): visibility: 17.07.2019 06:00:00 - 23.07.2019 06:00:00 (CEST)
Data & Tempo tt [°C] td [°C] ff [km/h] ff [kn] dd ppp [hPa] vv [km]
23.07.2019 06:00:00 - - - - - - -
23.07.2019 05:00:00 - - - - - - -
23.07.2019 04:00:00 - - - - - - -
23.07.2019 03:00:00 - - - - - - -
23.07.2019 02:00:00 - - - - - - -
23.07.2019 01:00:00 - - - - - - -
23.07.2019 00:00:00 - - - - - - -
22.07.2019 23:00:00 - - - - - - -
22.07.2019 22:00:00 - - - - - - -
22.07.2019 21:00:00 - - - - - - -
22.07.2019 20:00:00 31,8 20,1 18 10 N 1016,3 20
22.07.2019 19:00:00 34,0 18,0 18 10 NNE - 10
22.07.2019 18:00:00 35,0 17,0 18 10 - - 10
22.07.2019 17:00:00 37,0 16,0 15 8 - 1016,3 20
22.07.2019 16:00:00 38,0 16,0 16 9 - - 10
22.07.2019 15:00:00 38,0 15,0 13 7 - - 10
22.07.2019 14:00:00 38,0 14,6 13 7 - 1017,5 20
22.07.2019 13:00:00 38,0 16,0 11 6 - - 10
22.07.2019 12:00:00 37,0 17,0 13 7 - - 10
22.07.2019 11:00:00 34,0 18,9 8 4 - 1018,3 10
22.07.2019 10:00:00 32,0 20,0 8 4 ONO - 10
22.07.2019 09:00:00 28,0 19,0 15 8 ONO - 10
22.07.2019 08:00:00 25,0 18,2 9 5 ONO 1018,4 20
22.07.2019 07:00:00 - - - - - - -
22.07.2019 06:00:00 - - - - - - -
22.07.2019 05:00:00 - - - - - - -
22.07.2019 04:00:00 - - - - - - -
22.07.2019 03:00:00 - - - - - - -
22.07.2019 02:00:00 - - - - - - -
22.07.2019 01:00:00 - - - - - - -
22.07.2019 00:00:00 - - - - - - -
21.07.2019 23:00:00 - - - - - - -
21.07.2019 22:00:00 - - - - - - -
21.07.2019 21:00:00 - - - - - - -
21.07.2019 20:00:00 27,8 18,2 9 5 SO 1017,3 20
21.07.2019 19:00:00 29,0 17,0 11 6 SO - 10
21.07.2019 18:00:00 30,0 21,0 16 9 SSO - 10
21.07.2019 17:00:00 31,0 23,9 18 10 SSO 1017,5 20
21.07.2019 16:00:00 32,0 23,0 16 9 S - 10
21.07.2019 15:00:00 32,0 23,0 11 6 S - 10
21.07.2019 14:00:00 33,4 22,5 15 8 SSE 1018,1 20
21.07.2019 13:00:00 32,0 25,0 9 5 SSE - 10
21.07.2019 12:00:00 31,0 20,0 9 5 S - 10
21.07.2019 11:00:00 31,2 21,7 9 5 SSE 1018,3 20
21.07.2019 10:00:00 30,0 15,0 4 2 - - 10
21.07.2019 09:00:00 27,0 15,0 8 4 O - 10
21.07.2019 08:00:00 23,0 16,3 8 4 NO 1018,4 20
21.07.2019 07:00:00 - - - - - - -
21.07.2019 06:00:00 - - - - - - -
21.07.2019 05:00:00 - - - - - - -
21.07.2019 04:00:00 - - - - - - -
21.07.2019 03:00:00 - - - - - - -
21.07.2019 02:00:00 - - - - - - -
21.07.2019 01:00:00 - - - - - - -
21.07.2019 00:00:00 - - - - - - -
20.07.2019 23:00:00 - - - - - - -
20.07.2019 22:00:00 - - - - - - -
20.07.2019 21:00:00 - - - - - - -
20.07.2019 20:00:00 27,0 18,8 5 3 OSO 1017,0 20
20.07.2019 19:00:00 28,0 21,0 13 7 SSO - 10
20.07.2019 18:00:00 29,0 21,0 16 9 SSO - 10
20.07.2019 17:00:00 31,0 20,0 18 10 SSO 1017,3 20
20.07.2019 16:00:00 32,0 19,0 16 9 S - 10
20.07.2019 15:00:00 32,0 19,0 11 6 S - 10
20.07.2019 14:00:00 32,0 19,3 11 6 SSE 1017,8 20
20.07.2019 13:00:00 31,0 18,0 13 7 SSE - 10
20.07.2019 12:00:00 30,0 19,0 13 7 SSE - 10
20.07.2019 11:00:00 29,4 19,7 9 5 SSE 1017,5 20
20.07.2019 10:00:00 29,0 17,0 5 3 - - 10
20.07.2019 09:00:00 26,0 17,0 5 3 O - 10
20.07.2019 08:00:00 21,8 17,4 9 5 ONO 1017,3 20
20.07.2019 07:00:00 - - - - - - -
20.07.2019 06:00:00 - - - - - - -
20.07.2019 05:00:00 - - - - - - -
20.07.2019 04:00:00 - - - - - - -
20.07.2019 03:00:00 - - - - - - -
20.07.2019 02:00:00 - - - - - - -
20.07.2019 01:00:00 - - - - - - -
20.07.2019 00:00:00 - - - - - - -
19.07.2019 23:00:00 - - - - - - -
19.07.2019 22:00:00 - - - - - - -
19.07.2019 21:00:00 - - - - - - -
19.07.2019 20:00:00 26,8 18,7 5 3 SO 1014,5 20
19.07.2019 19:00:00 28,0 21,0 13 7 SSO - 10
19.07.2019 18:00:00 29,0 20,0 15 8 SSO - 10
19.07.2019 17:00:00 30,6 20,5 15 8 S 1013,9 20
19.07.2019 16:00:00 31,0 19,0 15 8 S - 10
19.07.2019 15:00:00 31,0 21,0 15 8 S - 10
19.07.2019 14:00:00 30,6 19,9 11 6 S 1015,0 20
19.07.2019 13:00:00 30,0 20,0 11 6 S - 10
19.07.2019 12:00:00 29,0 19,0 13 7 SSE - 10
19.07.2019 11:00:00 27,6 18,6 13 7 SE 1014,9 20
19.07.2019 10:00:00 27,0 19,0 9 5 ESE - 10
19.07.2019 09:00:00 - - - - - - -
19.07.2019 08:00:00 21,6 17,2 9 5 N 1014,1 20
19.07.2019 07:00:00 - - - - - - -
19.07.2019 06:00:00 - - - - - - -
19.07.2019 05:00:00 - - - - - - -
19.07.2019 04:00:00 - - - - - - -
19.07.2019 03:00:00 - - - - - - -
19.07.2019 02:00:00 - - - - - - -
19.07.2019 01:00:00 - - - - - - -
19.07.2019 00:00:00 - - - - - - -
18.07.2019 23:00:00 - - - - - - -
18.07.2019 22:00:00 - - - - - - -
18.07.2019 21:00:00 - - - - - - -
18.07.2019 20:00:00 25,6 20,6 13 7 S 1011,4 10
18.07.2019 19:00:00 26,0 21,0 16 9 S - 10
18.07.2019 18:00:00 28,0 19,0 13 7 S - 10
18.07.2019 17:00:00 29,4 17,9 13 7 S 1011,4 20
18.07.2019 16:00:00 31,0 18,0 11 6 S - 10
18.07.2019 15:00:00 30,0 18,0 11 6 SSE - 10
18.07.2019 14:00:00 30,0 17,1 9 5 S 1011,4 20
18.07.2019 13:00:00 30,0 17,0 9 5 S - 10
18.07.2019 12:00:00 28,0 16,0 9 5 SSE - 10
18.07.2019 11:00:00 28,8 16,7 11 6 SE 1011,4 20
18.07.2019 10:00:00 27,0 17,0 8 4 - - 10
18.07.2019 09:00:00 28,0 20,0 15 8 O - 10
18.07.2019 08:00:00 20,2 15,4 15 8 ONO 1011,4 10
18.07.2019 07:00:00 - - - - - - -
18.07.2019 06:00:00 - - - - - - -
18.07.2019 05:00:00 - - - - - - -
18.07.2019 04:00:00 - - - - - - -
18.07.2019 03:00:00 - - - - - - -
18.07.2019 02:00:00 - - - - - - -
18.07.2019 01:00:00 - - - - - - -
18.07.2019 00:00:00 - - - - - - -
17.07.2019 23:00:00 - - - - - - -
17.07.2019 22:00:00 - - - - - - -
17.07.2019 21:00:00 - - - - - - -
17.07.2019 20:00:00 26,0 14,5 11 6 NNE 1010,3 20
17.07.2019 19:00:00 28,0 14,0 18 10 NNE - 10
17.07.2019 18:00:00 29,0 13,0 18 10 N - 10
17.07.2019 17:00:00 31,4 11,7 13 7 N 1010,2 20
17.07.2019 16:00:00 32,0 12,0 18 10 NNE - 10
17.07.2019 15:00:00 32,0 11,0 16 9 - - 10
17.07.2019 14:00:00 30,0 11,5 16 9 N 1010,5 20
17.07.2019 13:00:00 31,0 13,0 15 8 - - 10
17.07.2019 12:00:00 30,0 12,0 16 9 N - 10
17.07.2019 11:00:00 28,4 14,3 15 8 N 1010,8 20
17.07.2019 10:00:00 27,0 18,0 11 6 NO - 10
17.07.2019 09:00:00 30,0 23,0 15 8 NO - 10
17.07.2019 08:00:00 23,0 17,7 18 10 NO 1010,6 20
17.07.2019 07:00:00 - - - - - - -
17.07.2019 06:00:00 - - - - - - -

tt = Temperatura
td = dewpoint
ff = velocità del vento
dd = direzione del vento
ppp = reduced air pressure
vv = visibility

Stazioni seguenti

WeatherPro
AMSI
MeteoEarth